"startDT [UTC]","vpos","CH4 [ppm]","stdev(CH4) [ppm]","CO2 [ppm]","stdev(CO2) [ppm]","H2O [ppm]","stdev(H2O)","p_LGR [torr]","T_LGR [C]","mt1_LGR [us]","mt2_LGR [us]","T_ECpre [C]","T_EC1 [C]","T_EC2 [C]","p_inlet [hPa]","p_in [hPa]","p_out [hPa]","T_inlet [C]","RH_inlet [%]","dwpt_inlet [C]","T_vent [C]","RH_vent [%]","dwpt_vent [C]","flow_vent [l min-1]","flow_inlet [l min-1]","dwpt_sample [C]","T_room [C]"
2012-03-29 00:00:00,0.0,1.9040,0.0009,400.79,0.22,-0.6,2.8,138.09,28.71,24.61,36.34,0.04,-272.73,-272.74,-53,561,-948,23.5,1.3,-32.7,23.5,1.4,-32.1,5.73,2.33,-30.9,28.2
2012-03-29 00:01:00,0.0,1.9039,0.0009,400.81,0.20,-0.7,1.2,138.09,28.74,24.61,36.35,0.04,-272.73,-272.73,-52,562,-948,23.5,1.3,-32.7,23.5,1.4,-32.1,5.73,2.51,-30.8,28.0
2012-03-29 00:02:00,0.0,1.9048,0.0010,400.88,0.24,-0.2,3.7,138.09,28.76,24.61,36.35,0.04,-272.73,-272.74,-53,562,-948,23.6,1.3,-32.6,23.5,1.4,-32.1,5.73,2.43,-30.8,27.5
2012-03-29 00:03:00,0.0,1.9049,0.0008,400.82,0.21,-0.9,1.2,138.09,28.77,24.61,36.35,0.04,-272.73,-272.74,-53,562,-948,23.6,1.3,-32.6,23.5,1.4,-32.1,5.73,2.35,-30.8,27.1
2012-03-29 00:04:00,0.0,1.9048,0.0010,400.83,0.21,-0.9,0.6,138.10,28.78,24.61,36.35,0.04,-272.73,-272.74,-53,563,-948,23.6,1.3,-32.7,23.5,1.4,-32.1,5.73,2.39,-30.9,26.9
2012-03-29 00:05:00,0.0,1.9045,0.0008,400.90,0.19,-0.7,2.3,138.10,28.79,24.61,36.35,0.04,-272.73,-272.73,-53,563,-948,23.5,1.3,-32.7,23.5,1.4,-32.1,5.73,2.42,-31.0,26.6
2012-03-29 00:06:00,0.0,1.9044,0.0009,400.86,0.24,-1.0,0.0,138.11,28.79,24.61,36.35,0.04,-272.74,-272.74,-53,563,-948,23.5,1.7,-30.4,23.5,1.8,-30.0,5.73,2.43,-31.0,26.4
2012-03-29 00:07:00,0.0,1.9043,0.0007,400.76,0.25,-1.0,0.0,138.11,28.79,24.61,36.35,0.04,-272.74,-272.74,-53,563,-948,23.5,1.4,-32.3,23.4,1.5,-31.9,5.73,2.44,-31.1,26.3
2012-03-29 00:08:00,0.0,1.9044,0.0007,400.67,0.27,-1.0,0.0,138.12,28.78,24.61,36.35,0.04,-272.74,-272.73,-53,563,-948,23.5,1.4,-32.6,23.4,1.4,-32.1,5.73,2.45,-31.2,26.1
2012-03-29 00:09:00,0.0,1.9041,0.0008,400.66,0.22,-1.0,0.0,138.12,28.77,24.62,36.35,0.04,-272.73,-272.74,-53,563,-948,23.5,1.3,-32.7,23.4,1.4,-32.2,5.73,2.44,-31.2,26.1
2012-03-29 00:10:00,0.0,1.9038,0.0008,400.61,0.23,-1.0,0.0,138.12,28.76,24.61,36.35,0.04,-272.74,-272.74,-53,563,-949,23.5,1.3,-32.8,23.4,1.4,-32.2,5.73,2.44,-31.3,25.9
2012-03-29 00:11:00,0.0,1.9034,0.0010,400.58,0.28,-1.0,0.0,138.13,28.74,24.61,36.35,0.04,-272.74,-272.73,-53,562,-948,23.4,1.3,-32.7,23.3,1.4,-32.2,5.73,2.44,-31.4,25.9
2012-03-29 00:12:00,0.0,1.9026,0.0009,400.59,0.24,-1.0,0.0,138.13,28.73,24.62,36.35,0.04,-272.74,-272.73,-53,563,-949,23.4,1.3,-32.7,23.3,1.4,-32.3,5.73,2.44,-31.4,25.9
2012-03-29 00:13:00,0.0,1.9017,0.0010,400.53,0.28,-1.0,0.0,138.13,28.71,24.61,36.35,0.04,-272.74,-272.74,-53,563,-948,23.4,1.3,-32.8,23.3,1.4,-32.2,5.73,2.44,-31.4,25.8
2012-03-29 00:14:00,0.0,1.9018,0.0008,400.62,0.23,-1.0,0.0,138.13,28.69,24.61,36.34,0.04,-272.73,-272.73,-53,562,-948,23.3,1.3,-32.8,23.3,1.4,-32.3,5.73,2.43,-31.5,25.7
2012-03-29 00:15:00,0.0,1.9011,0.0008,400.49,0.27,-1.0,0.0,138.14,28.68,24.61,36.34,0.04,-272.73,-272.73,-53,562,-948,23.3,1.4,-32.6,23.2,1.4,-32.2,5.73,2.43,-31.5,25.7
2012-03-29 00:16:00,0.0,1.9014,0.0008,400.62,0.27,-1.0,0.0,138.14,28.66,24.61,36.34,0.04,-272.74,-272.74,-53,562,-948,23.3,1.4,-32.3,23.2,1.5,-31.8,5.73,2.43,-31.6,25.7
2012-03-29 00:17:00,0.0,1.9005,0.0009,400.62,0.23,-1.0,0.0,138.14,28.64,24.61,36.34,0.04,-272.74,-272.74,-53,562,-948,23.3,1.4,-32.4,23.2,1.5,-31.9,5.73,2.42,-31.6,25.7
2012-03-29 00:18:00,0.0,1.9008,0.0009,400.60,0.23,-1.0,0.0,138.14,28.63,24.61,36.34,0.04,-272.74,-272.73,-54,562,-948,23.3,1.4,-32.4,23.2,1.5,-31.9,5.73,2.37,-31.6,26.4
2012-03-29 00:19:00,0.0,1.9010,0.0009,400.52,0.24,-1.0,0.0,138.13,28.62,24.61,36.34,0.04,-272.73,-272.74,-53,562,-948,23.3,1.4,-32.4,23.2,1.5,-32.0,5.73,2.33,-31.5,26.8
2012-03-29 00:20:00,0.0,1.9015,0.0009,400.46,0.25,-1.0,0.0,138.13,28.62,24.61,36.34,0.04,-272.74,-272.74,-53,562,-948,23.3,1.4,-32.4,23.2,1.5,-32.1,5.73,2.54,-31.4,27.1
2012-03-29 00:21:00,0.0,1.9018,0.0009,400.49,0.21,-1.0,0.0,138.12,28.62,24.61,36.34,0.04,-272.74,-272.74,-54,562,-948,23.3,1.4,-32.4,23.3,1.5,-32.0,5.73,2.32,-31.2,27.4
2012-03-29 00:22:00,0.0,1.9020,0.0008,400.53,0.27,-1.0,0.0,138.11,28.64,24.61,36.34,0.04,-272.74,-272.73,-53,562,-948,23.4,1.4,-32.4,23.3,1.5,-32.0,5.73,2.50,-31.1,27.5
2012-03-29 00:23:00,0.0,1.9026,0.0008,400.47,0.25,-1.0,0.0,138.11,28.65,24.61,36.35,0.04,-272.74,-272.73,-53,562,-948,23.4,1.4,-32.2,23.4,1.5,-31.9,5.73,2.36,-31.1,27.7
2012-03-29 00:24:00,0.0,1.9032,0.0009,400.57,0.26,-0.7,2.4,138.10,28.67,24.61,36.35,0.04,-272.74,-272.74,-53,562,-948,23.4,1.5,-31.9,23.4,1.5,-31.4,5.73,2.47,-31.0,27.8
2012-03-29 00:25:00,0.0,1.9030,0.0008,400.63,0.21,-0.6,2.1,138.10,28.68,24.61,36.35,0.04,-272.73,-272.74,-53,562,-948,23.5,1.4,-32.0,23.4,1.5,-31.5,5.73,2.37,-30.8,28.0
2012-03-29 00:26:00,0.0,1.9033,0.0009,400.76,0.22,0.9,7.6,138.10,28.71,24.61,36.34,0.04,-272.73,-272.74,-53,562,-948,23.5,1.6,-31.2,23.5,1.6,-30.6,5.73,2.47,-30.7,28.1
2012-03-29 00:27:00,0.0,1.9035,0.0010,400.81,0.21,-0.1,3.9,138.09,28.73,24.62,36.35,0.04,-272.74,-272.74,-53,562,-948,23.6,1.4,-32.0,23.5,1.5,-31.5,5.73,2.37,-30.7,28.2
2012-03-29 00:28:00,0.0,1.9043,0.0009,400.72,0.24,0.3,5.5,138.09,28.76,24.61,36.35,0.04,-272.73,-272.73,-53,562,-948,23.6,1.4,-32.1,23.6,1.5,-31.6,5.73,2.47,-30.6,28.2
2012-03-29 00:29:00,0.0,1.9049,0.0008,400.87,0.20,0.2,7.7,138.09,28.78,24.61,36.35,0.04,-272.73,-272.74,-53,562,-948,23.6,1.4,-32.2,23.6,1.5,-31.7,5.73,2.45,-30.5,27.6
2012-03-29 00:30:00,0.0,1.9043,0.0009,400.83,0.24,-0.2,2.6,138.09,28.80,24.61,36.35,0.04,-272.74,-272.74,-53,563,-948,23.6,1.4,-32.3,23.6,1.4,-31.9,5.73,2.34,-30.5,27.2
2012-03-29 00:31:00,0.0,1.9043,0.0007,400.90,0.22,-0.8,1.6,138.10,28.81,24.61,36.35,0.04,-272.74,-272.74,-53,563,-948,23.6,1.3,-32.6,23.6,1.4,-32.0,5.73,2.39,-30.6,26.9
2012-03-29 00:32:00,0.0,1.9043,0.0008,400.84,0.25,-0.1,4.0,138.10,28.82,24.61,36.35,0.04,-272.74,-272.74,-53,563,-949,23.6,1.3,-32.6,23.6,1.4,-32.0,5.73,2.42,-30.7,26.7
2012-03-29 00:33:00,0.0,1.9036,0.0010,400.79,0.24,-0.6,3.3,138.11,28.82,24.62,36.35,0.04,-272.73,-272.74,-53,563,-948,23.6,1.4,-32.5,23.5,1.4,-32.1,5.73,2.44,-30.7,26.5
2012-03-29 00:34:00,0.0,1.9037,0.0007,400.78,0.26,-1.0,0.0,138.11,28.82,24.62,36.34,0.04,-272.74,-272.73,-53,563,-949,23.6,1.4,-32.5,23.5,1.4,-32.0,5.73,2.44,-30.8,26.4
2012-03-29 00:35:00,0.0,1.9035,0.0008,400.65,0.26,-0.7,2.1,138.11,28.81,24.62,36.35,0.04,-272.74,-272.74,-53,563,-949,23.6,1.4,-32.3,23.5,1.5,-31.9,5.73,2.45,-30.8,26.3
2012-03-29 00:36:00,0.0,1.9030,0.0008,400.62,0.22,-0.6,2.8,138.12,28.80,24.62,36.35,0.04,-272.74,-272.73,-53,564,-949,23.5,1.4,-32.3,23.5,1.5,-31.9,5.73,2.45,-30.9,26.2
2012-03-29 00:37:00,0.0,1.9034,0.0008,400.68,0.26,-0.7,2.0,138.12,28.79,24.61,36.34,0.04,-272.74,-272.74,-53,563,-948,23.5,1.4,-32.2,23.5,1.5,-31.7,5.73,2.44,-31.0,26.1
2012-03-29 00:38:00,0.0,1.9025,0.0010,400.48,0.21,-0.6,3.5,138.12,28.78,24.61,36.35,0.04,-272.74,-272.74,-53,564,-949,23.5,1.4,-32.1,23.4,1.5,-31.7,5.73,2.44,-31.0,26.0
2012-03-29 00:39:00,0.0,1.9019,0.0010,400.40,0.27,-1.0,0.0,138.13,28.76,24.62,36.35,0.04,-272.74,-272.74,-54,563,-948,23.5,1.4,-32.1,23.4,1.5,-31.7,5.73,2.44,-31.1,25.9
2012-03-29 00:40:00,0.0,1.9023,0.0009,400.54,0.26,-1.0,0.0,138.13,28.75,24.61,36.34,0.04,-272.74,-272.74,-54,564,-949,23.5,1.4,-32.1,23.4,1.5,-31.7,5.73,2.43,-31.1,25.8
2012-03-29 00:41:00,0.0,1.9015,0.0010,400.45,0.25,-1.0,0.0,138.13,28.73,24.61,36.35,0.04,-272.73,-272.74,-54,563,-948,23.4,1.4,-32.1,23.3,1.5,-31.6,5.73,2.43,-31.2,25.8
2012-03-29 00:42:00,0.0,1.9013,0.0009,400.41,0.21,-1.0,0.0,138.13,28.72,24.61,36.35,0.04,-272.74,-272.74,-53,563,-949,23.4,1.4,-32.2,23.3,1.5,-31.8,5.73,2.43,-31.2,25.8
2012-03-29 00:43:00,0.0,1.9011,0.0009,400.41,0.22,-1.0,0.0,138.13,28.70,24.61,36.35,0.04,-272.74,-272.74,-54,563,-949,23.4,1.4,-32.2,23.3,1.5,-31.8,5.73,2.42,-31.3,25.8
2012-03-29 00:44:00,0.0,1.9009,0.0010,400.42,0.22,-1.0,0.0,138.14,28.69,24.61,36.35,0.04,-272.74,-272.74,-54,563,-948,23.4,1.4,-32.2,23.3,1.5,-31.9,5.73,2.42,-31.3,25.8
2012-03-29 00:45:00,0.0,1.9007,0.0011,400.53,0.27,-1.0,0.0,138.14,28.67,24.61,36.34,0.04,-272.74,-272.74,-53,562,-949,23.3,1.4,-32.3,23.2,1.5,-31.9,5.73,2.41,-31.3,26.0
2012-03-29 00:46:00,0.0,1.9002,0.0008,400.51,0.26,-1.0,0.0,138.14,28.66,24.61,36.34,0.04,-272.74,-272.74,-53,563,-949,23.3,1.5,-31.7,23.2,1.6,-31.3,5.73,2.33,-31.3,26.6
2012-03-29 00:47:00,0.0,1.9003,0.0009,400.27,0.24,-1.0,0.0,138.13,28.65,24.61,36.35,0.04,-272.73,-272.74,-53,562,-948,23.3,1.6,-31.3,23.3,1.6,-30.9,5.73,2.41,-31.2,27.0
2012-03-29 00:48:00,0.0,1.9010,0.0010,400.30,0.20,-1.0,0.0,138.12,28.65,24.61,36.34,0.04,-272.73,-272.74,-54,563,-948,23.4,1.4,-32.1,23.3,1.5,-31.7,5.73,2.51,-31.1,27.3
2012-03-29 00:49:00,0.0,1.9012,0.0009,400.37,0.27,-1.0,0.0,138.12,28.65,24.61,36.34,0.04,-272.73,-272.73,-53,563,-948,23.4,1.4,-32.3,23.4,1.5,-31.9,5.73,2.31,-31.0,27.5
2012-03-29 00:50:00,0.0,1.9015,0.0009,400.43,0.27,-1.0,0.0,138.11,28.66,24.61,36.34,0.04,-272.73,-272.74,-54,563,-948,23.5,1.4,-32.3,23.4,1.5,-31.8,5.73,2.54,-30.9,27.7
2012-03-29 00:51:00,0.0,1.9020,0.0008,400.38,0.25,-1.0,0.0,138.11,28.68,24.61,36.35,0.04,-272.74,-272.74,-53,563,-948,23.5,1.4,-32.3,23.4,1.5,-31.7,5.73,2.30,-30.8,27.8
2012-03-29 00:52:00,0.0,1.9024,0.0009,400.44,0.21,-1.0,0.0,138.10,28.70,24.61,36.35,0.04,-272.74,-272.73,-53,563,-948,23.5,1.4,-32.3,23.5,1.5,-31.7,5.73,2.54,-30.7,28.0
2012-03-29 00:53:00,0.0,1.9026,0.0009,400.49,0.30,-0.7,1.6,138.10,28.72,24.61,36.35,0.04,-272.74,-272.74,-53,563,-948,23.6,1.4,-32.2,23.5,1.5,-31.7,5.73,2.30,-30.6,28.1
2012-03-29 00:54:00,0.0,1.9031,0.0010,400.67,0.19,0.2,4.1,138.09,28.74,24.61,36.35,0.04,-272.74,-272.74,-53,562,-948,23.6,1.4,-32.1,23.6,1.5,-31.6,5.73,2.54,-30.5,28.2
2012-03-29 00:55:00,0.0,1.9030,0.0007,400.69,0.22,0.1,5.6,138.09,28.76,24.61,36.35,0.04,-272.73,-272.73,-53,562,-948,23.6,1.4,-32.2,23.6,1.5,-31.7,5.73,2.30,-30.4,28.3
2012-03-29 00:56:00,0.0,1.9034,0.0010,400.62,0.25,0.0,4.3,138.09,28.79,24.61,36.35,0.04,-272.74,-272.74,-53,563,-948,23.7,1.4,-32.2,23.6,1.5,-31.7,5.73,2.54,-30.3,28.1
2012-03-29 00:57:00,0.0,1.9037,0.0009,400.73,0.23,1.4,7.3,138.09,28.81,24.61,36.35,0.04,-272.74,-272.73,-53,563,-948,23.7,1.4,-32.1,23.7,1.5,-31.6,5.73,2.39,-30.3,27.5
2012-03-29 00:58:00,0.0,1.9039,0.0009,400.71,0.24,1.5,7.7,138.09,28.83,24.62,36.35,0.04,-272.74,-272.74,-53,564,-949,23.7,1.4,-32.1,23.7,1.5,-31.6,5.73,2.35,-30.3,27.3
2012-03-29 00:59:00,0.0,1.9042,0.0008,400.82,0.22,1.4,9.5,138.10,28.84,24.61,36.35,0.04,-272.73,-272.74,-53,563,-949,23.7,1.4,-32.0,23.7,1.5,-31.6,5.73,2.39,-30.4,27.0
2012-03-29 01:00:00,0.0,1.9039,0.0008,400.81,0.20,-0.3,3.6,138.10,28.85,24.61,36.35,0.04,-272.74,-272.74,-53,564,-949,23.7,1.4,-31.9,23.6,1.5,-31.5,5.73,2.43,-30.4,26.8
2012-03-29 01:01:00,0.0,1.9041,0.0009,400.79,0.23,1.2,7.7,138.11,28.85,24.62,36.34,0.04,-272.74,-272.74,-53,564,-949,23.7,1.5,-31.8,23.6,1.5,-31.4,5.73,2.44,-30.5,26.6
2012-03-29 01:02:00,0.0,1.9042,0.0010,400.76,0.23,-0.3,3.1,138.11,28.85,24.61,36.34,0.04,-272.74,-272.74,-53,564,-949,23.7,1.5,-31.7,23.6,1.5,-31.2,5.73,2.45,-30.6,26.4
2012-03-29 01:03:00,0.0,1.9029,0.0010,400.68,0.26,-0.9,0.4,138.11,28.84,24.62,36.35,0.04,-272.74,-272.74,-53,564,-949,23.7,1.5,-31.6,23.6,1.5,-31.3,5.73,2.45,-30.6,26.4
2012-03-29 01:04:00,0.0,1.9029,0.0008,400.61,0.19,-0.9,0.9,138.12,28.83,24.61,36.35,0.04,-272.74,-272.74,-53,564,-949,23.6,1.5,-31.7,23.6,1.5,-31.3,5.73,2.45,-30.7,26.3
2012-03-29 01:05:00,0.0,1.9025,0.0009,400.61,0.22,-0.9,1.0,138.12,28.82,24.61,36.35,0.04,-272.74,-272.74,-53,564,-949,23.6,1.5,-31.7,23.5,1.5,-31.3,5.73,2.45,-30.7,26.2
2012-03-29 01:06:00,0.0,1.9020,0.0008,400.58,0.24,-1.0,0.0,138.12,28.81,24.62,36.34,0.04,-272.73,-272.73,-54,564,-949,23.6,1.5,-31.6,23.5,1.5,-31.4,5.73,2.44,-30.8,26.1
2012-03-29 01:07:00,0.0,1.9023,0.0008,400.58,0.23,-1.0,0.0,138.13,28.80,24.61,36.35,0.04,-272.74,-272.74,-54,563,-949,23.5,1.5,-31.7,23.5,1.5,-31.4,5.73,2.43,-30.8,26.1
2012-03-29 01:08:00,0.0,1.9017,0.0008,400.50,0.22,-0.8,1.9,138.13,28.78,24.62,36.35,0.04,-272.74,-272.74,-54,564,-949,23.5,1.5,-31.7,23.5,1.5,-31.4,5.73,2.43,-30.9,26.0
2012-03-29 01:09:00,0.0,1.9013,0.0012,400.52,0.25,-1.0,0.0,138.13,28.77,24.61,36.34,0.04,-272.73,-272.74,-54,564,-949,23.5,1.5,-31.7,23.5,1.5,-31.4,5.73,2.43,-30.9,25.9
2012-03-29 01:10:00,0.0,1.9013,0.0009,400.55,0.23,-1.0,0.0,138.13,28.75,24.61,36.34,0.04,-272.74,-272.74,-53,564,-949,23.5,1.5,-31.7,23.4,1.5,-31.4,5.73,2.43,-30.9,25.8
2012-03-29 01:11:00,0.0,1.9008,0.0011,400.51,0.22,-1.0,0.0,138.13,28.74,24.61,36.34,0.04,-272.74,-272.74,-54,564,-949,23.5,1.5,-31.7,23.4,1.5,-31.4,5.73,2.42,-31.0,25.8
2012-03-29 01:12:00,0.0,1.9006,0.0011,400.51,0.24,-1.0,0.0,138.14,28.72,24.61,36.34,0.04,-272.73,-272.74,-54,563,-949,23.5,1.5,-31.7,23.4,1.5,-31.4,5.73,2.42,-31.0,25.8
2012-03-29 01:13:00,0.0,1.9005,0.0009,400.48,0.21,-1.0,0.0,138.14,28.71,24.61,36.35,0.04,-272.74,-272.74,-54,563,-949,23.4,1.5,-31.7,23.3,1.6,-31.3,5.73,2.41,-31.0,25.8
2012-03-29 01:14:00,0.0,1.9000,0.0009,400.46,0.24,-1.0,0.0,138.14,28.69,24.62,36.35,0.04,-272.74,-272.74,-54,563,-949,23.4,1.5,-31.7,23.3,1.6,-31.3,5.73,2.37,-31.0,26.1
2012-03-29 01:15:00,0.0,1.9005,0.0008,400.39,0.19,-1.0,0.0,138.13,28.68,24.61,36.34,0.04,-272.74,-272.74,-54,563,-949,23.4,1.5,-31.6,23.3,1.6,-31.2,5.73,2.34,-31.0,26.8
2012-03-29 01:16:00,0.0,1.9006,0.0009,400.35,0.22,-0.8,1.8,138.13,28.68,24.61,36.34,0.04,-272.74,-272.74,-54,563,-949,23.4,1.5,-31.6,23.4,1.6,-31.1,5.73,2.53,-30.9,27.2
2012-03-29 01:17:00,0.0,1.9009,0.0010,400.32,0.23,-1.0,0.0,138.12,28.68,24.61,36.34,0.04,-272.74,-272.74,-53,563,-949,23.5,1.5,-31.5,23.4,1.6,-31.0,5.73,2.34,-30.8,27.4
2012-03-29 01:18:00,0.0,1.9019,0.0010,400.37,0.22,-0.6,1.9,138.11,28.69,24.61,36.35,0.04,-272.74,-272.74,-54,563,-948,23.5,1.5,-31.4,23.5,1.6,-31.0,5.73,2.48,-30.7,27.6
2012-03-29 01:19:00,0.0,1.9029,0.0010,400.54,0.23,-0.7,1.9,138.11,28.70,24.61,36.35,0.04,-272.73,-272.74,-53,563,-948,23.5,1.5,-31.3,23.5,1.6,-30.9,5.73,2.37,-30.6,27.8
2012-03-29 01:20:00,0.0,1.9030,0.0008,400.54,0.28,-0.4,3.3,138.10,28.72,24.61,36.35,0.04,-272.74,-272.74,-54,563,-948,23.6,1.5,-31.3,23.5,1.6,-30.7,5.73,2.47,-30.5,28.0
2012-03-29 01:21:00,0.0,1.9028,0.0008,400.60,0.21,-0.3,3.7,138.10,28.74,24.62,36.35,0.04,-272.73,-272.74,-53,563,-948,23.6,1.5,-31.2,23.6,1.6,-30.7,5.73,2.37,-30.4,28.1
2012-03-29 01:22:00,0.0,1.9036,0.0011,400.72,0.23,-0.7,2.2,138.09,28.76,24.62,36.34,0.04,-272.73,-272.73,-53,563,-948,23.7,1.6,-31.0,23.6,1.6,-30.5,5.73,2.48,-30.3,28.2
2012-03-29 01:23:00,0.0,1.9040,0.0008,400.72,0.26,3.4,9.9,138.09,28.79,24.61,36.35,0.04,-272.74,-272.74,-53,563,-948,23.7,1.6,-30.8,23.7,1.7,-30.4,5.73,2.35,-30.2,28.3
2012-03-29 01:24:00,0.0,1.9039,0.0009,400.79,0.21,0.9,6.4,138.09,28.81,24.61,36.34,0.04,-272.74,-272.74,-53,563,-948,23.7,1.6,-30.7,23.7,1.7,-30.2,5.73,2.49,-30.1,28.3
2012-03-29 01:25:00,0.0,1.9042,0.0010,400.80,0.26,3.0,10.1,138.09,28.84,24.62,36.35,0.04,-272.73,-272.74,-54,564,-949,23.8,1.6,-30.5,23.7,1.7,-30.0,5.73,2.44,-30.0,27.7
2012-03-29 01:26:00,0.0,1.9040,0.0009,400.84,0.22,3.6,10.7,138.09,28.86,24.62,36.34,0.04,-272.73,-272.74,-53,564,-949,23.8,1.6,-30.4,23.7,1.7,-29.9,5.73,2.34,-30.0,27.4
2012-03-29 01:27:00,0.0,1.9043,0.0011,400.87,0.21,0.2,5.4,138.09,28.87,24.61,36.34,0.04,-272.74,-272.74,-53,564,-949,23.8,1.7,-30.4,23.7,1.7,-29.9,5.73,2.39,-30.1,27.1
2012-03-29 01:28:00,0.0,1.9039,0.0009,400.77,0.20,2.6,10.7,138.10,28.88,24.61,36.35,0.04,-272.73,-272.74,-53,564,-949,23.8,1.7,-30.3,23.7,1.8,-29.8,5.73,2.43,-30.1,26.9
2012-03-29 01:29:00,0.0,1.9031,0.0009,400.78,0.20,1.3,8.6,138.10,28.88,24.61,36.35,0.04,-272.74,-272.73,-53,565,-949,23.8,1.7,-30.1,23.7,1.8,-29.8,5.73,2.45,-30.2,26.8
2012-03-29 01:30:00,0.0,1.9031,0.0007,400.67,0.28,-0.3,3.5,138.11,28.88,24.61,36.35,0.04,-272.74,-272.74,-54,564,-950,23.8,1.7,-30.1,23.7,1.8,-29.8,5.73,2.46,-30.3,26.7
2012-03-29 01:31:00,0.0,1.9031,0.0009,400.73,0.24,-0.2,5.4,138.11,28.87,24.61,36.34,0.04,-272.74,-272.74,-54,564,-949,23.8,1.7,-30.1,23.7,1.8,-29.8,5.73,2.46,-30.3,26.7
2012-03-29 01:32:00,0.0,1.9028,0.0009,400.73,0.24,-0.1,3.7,138.11,28.87,24.61,36.34,0.04,-272.73,-272.73,-53,565,-950,23.7,1.7,-30.3,23.7,1.8,-29.8,5.73,2.45,-30.4,26.6
2012-03-29 01:33:00,0.0,1.9025,0.0009,400.52,0.21,-0.1,4.2,138.12,28.86,24.61,36.34,0.04,-272.74,-272.74,-54,564,-949,23.7,1.7,-30.3,23.6,1.8,-29.8,5.73,2.44,-30.5,26.5
2012-03-29 01:34:00,0.0,1.9025,0.0007,400.47,0.24,-0.7,1.9,138.12,28.85,24.61,36.34,0.04,-272.74,-272.74,-54,565,-950,23.7,1.7,-30.1,23.6,1.8,-29.9,5.73,2.43,-30.5,26.4
2012-03-29 01:35:00,0.0,1.9020,0.0010,400.41,0.22,-0.9,0.5,138.12,28.84,24.61,36.35,0.04,-272.74,-272.74,-54,564,-949,23.7,1.7,-30.1,23.6,1.8,-29.8,5.73,2.42,-30.5,26.2
2012-03-29 01:36:00,0.0,1.9018,0.0008,400.34,0.25,-0.9,0.6,138.12,28.83,24.61,36.35,0.04,-272.73,-272.73,-54,564,-949,23.7,1.7,-30.2,23.6,1.8,-29.8,5.73,2.41,-30.6,26.2
2012-03-29 01:37:00,0.0,1.9018,0.0009,400.41,0.18,-0.3,3.5,138.13,28.81,24.61,36.35,0.04,-272.74,-272.74,-54,565,-950,23.7,1.7,-30.0,23.6,1.8,-29.6,5.73,2.41,-30.6,26.2
2012-03-29 01:38:00,0.0,1.9015,0.0009,400.45,0.23,-1.0,0.0,138.13,28.80,24.61,36.35,0.04,-272.74,-272.74,-54,564,-949,23.6,1.7,-30.0,23.5,1.8,-29.6,5.73,2.40,-30.6,26.1
2012-03-29 01:39:00,0.0,1.9015,0.0008,400.43,0.23,-0.8,1.3,138.13,28.79,24.62,36.35,0.04,-272.73,-272.74,-54,565,-950,23.6,1.8,-29.8,23.5,1.8,-29.4,5.73,2.39,-30.7,26.0
2012-03-29 01:40:00,0.0,1.9011,0.0011,400.50,0.24,-0.4,4.8,138.13,28.77,24.62,36.35,0.04,-272.74,-272.73,-54,564,-949,23.6,1.8,-29.7,23.5,1.9,-29.3,5.73,2.40,-30.7,26.0
2012-03-29 01:41:00,0.0,1.9012,0.0008,400.45,0.22,-1.0,0.0,138.13,28.76,24.61,36.35,0.04,-272.74,-272.74,-54,564,-950,23.6,1.8,-29.6,23.5,1.9,-29.3,5.73,2.40,-30.7,26.1
2012-03-29 01:42:00,0.0,1.9010,0.0008,400.56,0.24,-0.9,0.7,138.13,28.75,24.61,36.35,0.04,-272.73,-272.74,-54,564,-949,23.5,1.8,-29.7,23.5,1.9,-29.3,5.73,2.40,-30.7,25.9
2012-03-29 01:43:00,0.0,1.9003,0.0010,400.55,0.23,-0.9,0.6,138.13,28.73,24.61,36.34,0.04,-272.74,-272.74,-54,564,-949,23.5,1.8,-29.7,23.5,1.8,-29.4,5.73,2.42,-30.7,26.0
2012-03-29 01:44:00,0.0,1.9004,0.0009,400.56,0.26,-1.0,0.0,138.13,28.72,24.61,36.34,0.04,-272.74,-272.74,-54,564,-949,23.5,1.8,-29.9,23.4,1.8,-29.5,5.73,2.47,-30.7,26.6
2012-03-29 01:45:00,0.0,1.9006,0.0009,400.39,0.21,-1.0,0.0,138.13,28.71,24.61,36.35,0.04,-272.74,-272.73,-54,564,-949,23.5,1.8,-29.9,23.5,1.8,-29.4,5.73,2.52,-30.6,27.1
2012-03-29 01:46:00,0.0,1.9006,0.0008,400.34,0.26,0.2,6.1,138.12,28.71,24.61,36.34,0.04,-272.74,-272.74,-54,564,-949,23.6,1.8,-29.8,23.5,1.8,-29.5,5.73,2.30,-30.5,27.4
2012-03-29 01:47:00,0.0,1.9010,0.0007,400.24,0.22,-0.2,6.6,138.11,28.72,24.61,36.35,0.04,-272.74,-272.74,-53,564,-949,23.6,1.8,-29.7,23.5,1.9,-29.3,5.73,2.53,-30.4,27.6
2012-03-29 01:48:00,0.0,1.9015,0.0010,400.41,0.23,0.1,4.8,138.11,28.73,24.61,36.34,0.04,-272.74,-272.74,-54,563,-949,23.6,1.8,-29.6,23.6,1.9,-29.2,5.73,2.32,-30.3,27.8
2012-03-29 01:49:00,0.0,1.9016,0.0008,400.43,0.28,0.2,4.6,138.10,28.75,24.61,36.35,0.04,-272.74,-272.74,-53,564,-949,23.7,1.8,-29.5,23.6,1.9,-29.1,5.73,2.51,-30.2,28.0
2012-03-29 01:50:00,0.0,1.9023,0.0008,400.53,0.26,0.4,4.4,138.10,28.77,24.61,36.35,0.04,-272.74,-272.74,-54,563,-949,23.7,1.8,-29.4,23.7,1.9,-29.0,5.73,2.32,-30.1,28.1
2012-03-29 01:51:00,0.0,1.9023,0.0008,400.63,0.22,1.5,6.6,138.10,28.79,24.61,36.35,0.04,-272.74,-272.74,-53,564,-949,23.7,1.8,-29.3,23.7,1.9,-28.9,5.73,2.53,-30.0,28.3
2012-03-29 01:52:00,0.0,1.9024,0.0009,400.69,0.22,2.3,8.4,138.09,28.81,24.61,36.34,0.04,-272.74,-272.74,-53,563,-949,23.8,1.8,-29.2,23.8,1.9,-28.7,5.73,2.30,-29.9,28.4
2012-03-29 01:53:00,0.0,1.9035,0.0010,400.71,0.24,3.6,11.6,138.09,28.84,24.61,36.35,0.04,-272.74,-272.74,-53,564,-949,23.8,1.9,-29.1,23.8,1.9,-28.6,5.73,2.53,-29.8,28.5
2012-03-29 01:54:00,0.0,1.9036,0.0009,400.65,0.23,5.5,14.1,138.09,28.87,24.61,36.36,0.04,-272.74,-272.74,-53,564,-949,23.9,1.9,-29.1,23.8,2.0,-28.6,5.73,2.32,-29.7,28.0
2012-03-29 01:55:00,0.0,1.9038,0.0008,400.76,0.22,2.3,7.6,138.09,28.89,24.61,36.35,0.04,-272.74,-272.74,-54,564,-949,23.9,1.9,-29.0,23.8,2.0,-28.6,5.73,2.42,-29.7,27.7
2012-03-29 01:56:00,0.0,1.9039,0.0007,400.66,0.22,0.9,6.7,138.09,28.91,24.62,36.35,0.04,-272.73,-272.73,-54,565,-949,23.9,1.9,-29.0,23.9,2.0,-28.6,5.73,2.50,-29.7,27.4
2012-03-29 01:57:00,0.0,1.9040,0.0010,400.74,0.22,1.8,6.5,138.10,28.92,24.61,36.35,0.04,-272.74,-272.74,-54,565,-949,23.9,1.9,-29.1,23.8,1.9,-28.6,5.73,2.47,-29.7,27.2
2012-03-29 01:58:00,0.0,1.9031,0.0010,400.67,0.23,3.4,10.3,138.10,28.92,24.61,36.35,0.04,-272.74,-272.73,-54,565,-949,23.9,1.9,-29.1,23.8,1.9,-28.6,5.73,2.43,-29.8,27.1
2012-03-29 01:59:00,0.0,1.9026,0.0010,400.73,0.28,6.2,15.2,138.10,28.92,24.61,36.34,0.04,-272.73,-272.73,-54,565,-950,23.9,1.9,-29.0,23.8,1.9,-28.6,5.73,2.40,-29.9,26.9
2012-03-29 02:00:00,0.0,1.9024,0.0010,400.64,0.23,0.7,9.3,138.11,28.92,24.61,36.35,0.04,-272.74,-272.74,-54,565,-949,23.9,1.9,-29.1,23.8,1.9,-28.6,5.73,2.38,-29.9,26.7
2012-03-29 02:01:00,0.0,1.9024,0.0010,400.53,0.22,3.9,13.7,138.11,28.92,24.61,36.35,0.04,-272.74,-272.74,-54,566,-950,23.9,1.9,-29.1,23.8,1.9,-28.6,5.73,2.38,-30.0,26.7
2012-03-29 02:02:00,0.0,1.9020,0.0008,400.56,0.21,2.8,10.5,138.11,28.91,24.62,36.35,0.04,-272.74,-272.74,-54,565,-949,23.8,1.9,-29.1,23.8,1.9,-28.7,5.73,2.38,-30.0,26.6
2012-03-29 02:03:00,0.0,1.9023,0.0009,400.49,0.23,0.9,6.2,138.12,28.90,24.61,36.35,0.04,-272.74,-272.74,-54,566,-950,23.8,1.8,-29.2,23.7,1.9,-28.8,5.73,2.41,-30.0,26.4
2012-03-29 02:04:00,0.0,1.9018,0.0011,400.45,0.27,0.4,6.3,138.12,28.90,24.62,36.35,0.04,-272.74,-272.74,-54,565,-949,23.8,1.8,-29.3,23.7,1.9,-28.8,5.73,2.43,-30.0,26.3
2012-03-29 02:05:00,0.0,1.9015,0.0009,400.47,0.23,1.6,8.5,138.12,28.88,24.61,36.34,0.04,-272.73,-272.74,-54,565,-950,23.8,1.8,-29.2,23.7,1.9,-28.9,5.73,2.44,-30.1,26.3
2012-03-29 02:06:00,0.0,1.9019,0.0008,400.40,0.26,0.5,7.5,138.12,28.87,24.61,36.34,0.04,-272.73,-272.74,-54,565,-950,23.8,1.8,-29.3,23.7,1.9,-28.8,5.73,2.46,-30.1,26.3
2012-03-29 02:07:00,0.0,1.9014,0.0009,400.44,0.26,-0.3,3.6,138.12,28.86,24.61,36.34,0.04,-272.74,-272.74,-54,565,-950,23.8,1.9,-29.1,23.7,1.9,-28.8,5.73,2.46,-30.1,26.2
2012-03-29 02:08:00,0.0,1.9010,0.0009,400.40,0.23,-0.4,3.2,138.13,28.85,24.61,36.35,0.04,-272.74,-272.74,-54,565,-950,23.8,1.9,-29.1,23.7,1.9,-28.7,5.73,2.46,-30.2,26.1
2012-03-29 02:09:00,0.0,1.9009,0.0009,400.39,0.24,-0.9,0.8,138.13,28.84,24.62,36.35,0.04,-272.74,-272.74,-54,565,-950,23.7,1.9,-29.1,23.7,2.0,-28.7,5.73,2.44,-30.2,26.1
2012-03-29 02:10:00,0.0,1.9008,0.0008,400.44,0.21,-0.8,1.1,138.13,28.83,24.61,36.34,0.04,-272.74,-272.74,-54,565,-950,23.7,1.9,-29.0,23.6,2.0,-28.7,5.73,2.42,-30.2,26.1
2012-03-29 02:11:00,0.0,1.9005,0.0010,400.36,0.17,-0.7,1.6,138.13,28.81,24.61,36.35,0.04,-272.74,-272.74,-54,565,-950,23.7,1.9,-29.0,23.6,2.0,-28.6,5.73,2.39,-30.2,26.1
2012-03-29 02:12:00,0.0,1.9008,0.0010,400.43,0.23,-0.8,1.2,138.13,28.80,24.61,36.34,0.04,-272.74,-272.74,-54,565,-950,23.7,1.9,-28.8,23.6,2.0,-28.6,5.73,2.38,-30.2,26.1
2012-03-29 02:13:00,0.0,1.9009,0.0010,400.48,0.21,-0.9,0.9,138.13,28.79,24.61,36.34,0.04,-272.74,-272.74,-54,565,-950,23.7,1.9,-29.0,23.6,2.0,-28.6,5.73,2.38,-30.2,26.0
2012-03-29 02:14:00,0.0,1.9007,0.0009,400.51,0.23,-1.0,0.0,138.13,28.78,24.61,36.34,0.04,-272.74,-272.74,-54,565,-950,23.7,1.9,-29.0,23.6,2.0,-28.6,5.73,2.39,-30.2,25.9
2012-03-29 02:15:00,0.0,1.9006,0.0008,400.47,0.24,-1.0,0.0,138.13,28.77,24.61,36.35,0.04,-272.74,-272.74,-54,565,-949,23.7,1.9,-28.9,23.6,2.0,-28.6,5.73,2.43,-30.2,26.2
2012-03-29 02:16:00,0.0,1.9007,0.0007,400.46,0.26,-0.9,0.5,138.13,28.76,24.61,36.34,0.04,-272.74,-272.74,-54,565,-950,23.7,1.9,-28.9,23.6,2.0,-28.6,5.73,2.52,-30.2,26.9
2012-03-29 02:17:00,0.0,1.9010,0.0010,400.27,0.27,-1.0,0.3,138.12,28.76,24.61,36.35,0.04,-272.73,-272.74,-54,565,-950,23.7,1.9,-28.9,23.6,2.0,-28.6,5.73,2.41,-30.1,27.3
2012-03-29 02:18:00,0.0,1.9016,0.0010,400.26,0.22,-0.1,4.0,138.12,28.76,24.61,36.35,0.04,-272.74,-272.74,-53,565,-949,23.7,1.9,-28.8,23.7,2.0,-28.6,5.73,2.37,-30.0,27.6